Tracking 19638 objects as of 19-Apr-2019
HD Live streaming from Space Station
objects crossing your sky now

THORAD DELTA 1 DEB

Track THORAD DELTA 1 DEB now!
10-day predictions


NORAD ID: 42627
Int'l Code: 1974-089GU
Perigee: 1,391.3 km
Apogee: 1,493.4 km
Inclination: 101.4 °
Period: 114.6 minutes
Semi major axis: 7813 km
RCS: Unknown
Launch date: November 15, 1974
Source: United States (US)
Launch site: AIR FORCE WESTERN TEST RANGE (AFWTR)

Note: This is SATELLITE DEBRIS
aabbcc
Your satellite tracking list
Your tracking list is empty




NASA's NSSDC Master Catalog

Two Line Element Set (TLE):
1 42627U 74089GU  19088.80929493 +.00000059 +00000-0 +60684-3 0  9990
2 42627 101.4288 076.3949 0065394 041.9690 076.9584 12.57033536672224
Source of the keplerian elements: AFSPC